Wind_Speed
44 44 44 44 45 46 46 46 46 45 44 44 45 45 44 44 43 41 39 41 41 42 46 46 45 46 46 45 48 48 46 43 43 43 43 43 44 45
43 43 43 43 44 44 43 43 43 43 42 41 40 40 38 37 36 34 32 33 34 35 37 38 39 41 41 40 40 42 42 42 41 41 41 41 42 43
42 42 42 42 42 41 41 41 41 40 39 37 36 35 33 31 29 28 26 24 24 26 28 29 32 34 35 36 37 38 38 39 39 40 40 40 41 42
40 40 40 40 39 38 38 38 37 36 35 34 33 31 30 28 26 24 23 22 22 22 24 26 29 31 32 34 36 38 39 39 39 39 40 41 43 44
39 39 38 37 36 36 35 35 34 33 32 31 30 29 28 27 25 23 22 22 22 23 25 26 28 30 32 34 36 38 39 40 40 41 42 43 44 45
37 36 35 34 34 33 32 32 31 30 29 29 29 28 27 26 25 24 23 23 24 24 25 27 29 31 33 34 35 37 38 39 40 41 42 43 45 46
34 33 33 32 31 31 30 30 29 29 29 29 29 29 28 27 26 26 25 26 26 26 27 28 30 31 33 34 36 37 38 40 41 43 44 45 47 48
32 31 30 30 29 29 29 30 29 29 29 30 30 30 30 29 29 29 29 29 29 30 31 32 33 34 35 37 38 40 42 43 45 46 47 48 49 51
30 29 28 29 29 30 30 30 31 31 31 32 32 32 32 32 32 32 33 33 33 34 35 36 38 39 40 41 43 44 46 47 48 49 50 51 52 52
29 28 29 29 30 31 31 32 32 33 34 34 34 34 34 34 35 35 36 37 37 38 39 40 42 43 44 45 47 48 49 50 51 51 52 52 52 52
29 29 29 30 31 32 32 33 34 34 35 35 36 36 36 37 37 38 38 39 40 42 43 44 45 46 48 49 50 52 53 53 53 53 52 52 52 52
30 30 31 31 32 33 34 35 35 36 36 37 37 38 38 39 39 40 41 42 43 45 46 47 48 49 50 52 54 55 55 55 54 53 52 52 51 50
31 31 32 33 34 35 35 36 37 37 38 39 39 40 40 41 42 43 43 45 46 48 49 50 51 52 52 53 54 56 56 55 54 53 52 50 49 48
32 33 33 34 35 36 37 38 38 39 40 40 41 42 42 43 44 45 46 47 49 51 52 52 52 53 53 53 53 53 54 54 53 52 51 49 48 47
34 34 35 36 37 38 38 39 39 40 41 41 42 43 44 45 46 47 48 50 51 53 53 53 53 52 52 51 51 51 51 52 52 52 50 49 48 47
35 36 37 37 38 39 39 40 41 41 42 43 44 45 46 47 48 49 50 51 52 53 53 53 52 52 51 49 48 48 49 48 50 51 50 48 47 46
37 38 38 38 39 40 41 41 42 43 43 44 45 46 47 49 50 50 51 52 53 53 54 53 53 51 49 47 45 45 46 46 47 47 46 44 43 43
38 38 39 39 40 41 41 42 43 44 44 45 46 47 49 49 50 51 52 52 53 52 53 53 53 50 47 44 44 43 43 43 43 43 42 40 38 40
39 39 40 41 41 42 42 43 44 45 46 46 47 48 49 50 51 52 52 53 52 52 52 52 51 48 44 41 40 42 41 41 40 39 39 37 34 35
40 40 41 42 42 43 44 44 45 46 47 48 48 49 49 50 51 52 52 52 51 50 50 51 49 46 42 38 35 35 40 39 38 36 36 35 33 32
40 41 42 42 43 44 45 46 47 48 48 48 49 50 50 51 51 52 52 51 50 49 48 47 46 44 41 37 33 32 35 38 37 36 34 34 32 31
40 41 42 43 44 45 46 47 47 48 48 48 49 50 50 51 51 52 51 50 49 48 46 44 43 41 39 37 33 31 31 35 37 36 34 34 32 29
41 42 42 43 44 45 46 47 47 47 48 48 49 50 50 51 52 51 51 50 48 46 43 41 40 39 39 38 35 32 31 33 34 34 34 35 33 29
Wind_Direction
295 296 297 298 299 301 302 303 305 307 307 307 307 308 306 302 299 294 287 278 273 269 263 262 262 263 262 261 260 263 266 266 266 266 265 265 261 258
296 296 297 298 299 301 303 305 306 308 310 310 311 312 311 308 304 298 293 286 277 272 268 265 263 264 263 265 265 265 267 267 267 267 268 267 264 262
296 296 297 298 300 301 303 305 307 310 312 315 317 317 317 316 310 304 299 294 282 274 273 272 268 268 268 268 268 267 267 268 269 268 269 268 265 263
295 296 297 298 300 301 303 305 308 311 314 318 320 320 321 322 320 313 306 300 293 286 284 279 275 273 271 270 269 270 271 272 271 270 269 268 266 264
295 296 297 298 300 302 304 305 308 312 316 319 322 322 322 323 323 318 311 304 298 292 289 283 280 279 276 273 272 274 274 273 271 269 268 267 266 264
296 297 297 299 301 302 304 306 308 311 315 318 320 321 321 320 318 317 313 307 302 297 293 288 284 281 280 278 276 274 273 273 271 270 269 268 266 265
297 298 299 300 301 303 305 307 309 311 313 315 316 317 317 317 316 314 311 307 303 299 295 291 288 286 283 281 279 277 276 274 273 272 271 270 269 268
298 299 300 301 302 304 305 306 308 310 311 313 314 314 314 313 312 311 308 306 303 300 297 294 291 288 285 283 282 280 279 277 276 275 274 273 272 271
299 299 300 301 302 303 304 305 306 308 310 311 311 311 311 310 308 307 306 304 302 300 297 295 292 290 288 286 285 283 282 281 280 278 277 276 275 274
298 299 300 301 302 303 304 305 306 307 308 309 309 309 308 308 306 305 304 302 301 299 297 295 294 292 290 289 287 286 285 284 283 282 281 279 278 276
298 299 300 301 302 303 304 305 306 306 307 307 307 307 307 306 305 304 303 302 300 299 298 296 295 293 292 290 289 288 287 285 284 283 282 280 279 277
298 300 301 301 302 304 305 306 306 306 306 307 307 306 306 306 305 305 304 302 301 300 299 297 296 294 293 292 290 289 288 286 285 283 282 280 278 277
299 300 301 302 303 304 305 305 306 306 306 307 307 306 306 306 306 305 304 303 302 301 300 298 297 295 294 292 291 290 288 287 285 284 282 280 278 276
300 301 301 302 303 304 305 305 306 306 306 306 306 306 306 306 306 306 306 305 304 303 301 300 298 297 295 293 291 289 288 287 285 283 281 280 278 276
300 301 301 302 303 304 304 305 306 306 306 307 307 307 307 307 307 307 307 306 306 305 304 302 301 299 296 294 291 289 287 286 285 284 282 281 279 277
299 300 301 302 303 304 304 305 305 306 307 307 308 308 308 308 308 308 308 308 308 307 306 304 303 301 299 296 292 289 287 285 283 283 282 281 279 276
299 300 301 302 303 304 304 305 306 307 307 308 308 308 309 309 309 309 309 309 309 308 307 306 305 303 301 297 293 290 288 285 284 283 282 281 278 276
300 301 301 302 303 304 305 305 306 307 307 308 309 309 310 310 310 310 311 311 310 309 308 307 307 305 303 300 296 293 290 288 286 285 283 280 276 274
300 301 301 302 303 304 305 305 306 307 307 308 309 310 311 311 311 312 312 313 312 311 310 309 308 307 305 302 298 295 292 290 290 289 286 282 277 272
300 301 301 302 303 305 305 306 307 307 308 309 310 311 312 312 313 313 314 314 314 313 312 311 310 309 307 304 300 295 293 292 291 290 287 284 280 276
300 301 302 303 304 305 306 306 307 308 309 309 310 312 312 313 314 315 315 315 314 314 313 312 311 310 309 307 304 297 293 293 293 291 288 285 282 279
301 302 303 304 306 306 307 308 309 309 309 310 311 312 313 314 315 316 316 315 315 315 314 313 311 311 310 309 307 301 296 293 294 294 292 288 284 278
302 303 304 306 307 309 309 310 310 310 310 311 312 313 314 315 316 316 316 316 316 315 314 313 312 311 310 309 308 305 299 294 293 294 294 292 289 283
Height
5731 5728 5724 5720 5715 5711 5706 5702 5697 5693 5687 5679 5672 5664 5656 5650 5644 5641 5637 5637 5637 5638 5640 5643 5646 5650 5653 5656 5659 5662 5664 5665 5667 5669 5671 5672 5674 5677
5722 5718 5714 5710 5705 5701 5696 5691 5686 5681 5676 5669 5661 5654 5647 5641 5635 5631 5628 5627 5627 5628 5630 5632 5635 5639 5642 5645 5647 5650 5652 5653 5655 5657 5658 5659 5661 5663
5712 5708 5704 5700 5696 5691 5687 5682 5677 5671 5666 5660 5653 5646 5640 5634 5629 5625 5623 5621 5620 5621 5623 5624 5627 5630 5632 5635 5637 5638 5640 5642 5643 5644 5645 5647 5648 5650
5703 5699 5695 5691 5687 5682 5678 5673 5668 5663 5658 5652 5646 5640 5635 5629 5625 5621 5619 5617 5617 5617 5617 5618 5620 5621 5623 5624 5626 5627 5628 5629 5630 5631 5632 5634 5635 5636
5694 5690 5686 5682 5678 5674 5670 5665 5661 5656 5651 5646 5641 5635 5630 5626 5621 5618 5615 5614 5613 5612 5611 5612 5612 5613 5613 5614 5615 5615 5616 5617 5617 5618 5618 5619 5620 5621
5685 5681 5677 5673 5670 5666 5662 5658 5653 5649 5644 5640 5635 5630 5626 5622 5618 5614 5611 5609 5608 5606 5605 5605 5604 5604 5603 5603 5604 5603 5603 5603 5603 5604 5604 5604 5605 5605
5676 5672 5669 5665 5662 5658 5654 5650 5646 5642 5638 5634 5629 5625 5621 5617 5613 5610 5607 5604 5602 5600 5599 5597 5596 5595 5593 5593 5592 5591 5591 5590 5590 5589 5589 5589 5589 5589
5668 5665 5661 5658 5655 5651 5647 5644 5640 5636 5631 5627 5623 5619 5615 5611 5607 5604 5601 5598 5596 5594 5591 5589 5587 5585 5583 5582 5580 5579 5577 5576 5575 5574 5574 5573 5572 5572
5661 5657 5654 5651 5647 5644 5640 5637 5632 5628 5624 5620 5616 5612 5608 5604 5600 5597 5593 5590 5587 5585 5582 5579 5576 5574 5571 5569 5567 5565 5563 5561 5559 5558 5556 5555 5554 5553
5654 5650 5647 5644 5640 5637 5633 5629 5625 5620 5616 5612 5608 5604 5600 5596 5592 5588 5585 5581 5578 5574 5571 5568 5564 5561 5558 5555 5552 5549 5547 5544 5542 5539 5537 5536 5534 5533
5647 5643 5640 5637 5633 5629 5626 5621 5617 5613 5608 5604 5599 5595 5591 5587 5583 5579 5575 5571 5567 5563 5559 5555 5551 5548 5544 5540 5536 5532 5529 5526 5524 5521 5519 5517 5515 5514
5639 5636 5633 5629 5625 5621 5617 5613 5609 5604 5600 5595 5591 5586 5581 5577 5573 5568 5564 5559 5555 5551 5546 5542 5537 5533 5529 5524 5518 5514 5511 5508 5505 5503 5500 5498 5497 5495
5632 5628 5625 5621 5617 5613 5609 5604 5600 5595 5591 5586 5581 5576 5572 5567 5562 5557 5552 5547 5542 5537 5532 5527 5522 5516 5512 5507 5501 5495 5492 5488 5486 5484 5482 5480 5479 5478
5624 5620 5616 5613 5609 5604 5600 5596 5591 5586 5581 5576 5571 5566 5561 5556 5550 5545 5539 5534 5528 5522 5516 5511 5506 5500 5495 5489 5484 5477 5472 5469 5467 5465 5463 5462 5461 5460
5615 5612 5608 5604 5600 5595 5591 5586 5582 5577 5571 5566 5561 5555 5550 5544 5538 5532 5526 5520 5513 5506 5500 5494 5489 5483 5477 5472 5467 5461 5456 5451 5447 5446 5445 5444 5443 5442
5607 5603 5599 5595 5591 5586 5581 5577 5572 5567 5561 5556 5550 5544 5538 5532 5525 5519 5512 5505 5498 5490 5484 5478 5472 5466 5461 5455 5450 5444 5438 5435 5431 5428 5428 5427 5426 5424
5598 5594 5590 5585 5581 5576 5572 5567 5562 5556 5551 5545 5539 5532 5526 5519 5512 5506 5499 5491 5484 5475 5467 5461 5455 5450 5444 5438 5433 5428 5423 5419 5415 5413 5411 5411 5410 5408
5588 5584 5580 5575 5571 5566 5561 5556 5551 5545 5540 5533 5527 5521 5514 5507 5499 5492 5485 5478 5470 5461 5453 5445 5439 5434 5429 5423 5417 5412 5407 5403 5400 5398 5396 5396 5396 5394
5578 5574 5570 5565 5561 5556 5551 5545 5540 5534 5528 5522 5515 5508 5501 5494 5486 5478 5471 5463 5455 5447 5439 5430 5423 5418 5414 5410 5404 5396 5392 5389 5386 5384 5381 5381 5382 5382
5568 5564 5559 5555 5550 5545 5540 5534 5528 5522 5516 5509 5503 5496 5488 5481 5473 5465 5457 5449 5442 5434 5425 5416 5409 5404 5399 5396 5392 5386 5378 5375 5374 5372 5370 5368 5368 5369
5558 5553 5549 5544 5539 5534 5528 5522 5516 5510 5504 5497 5490 5483 5476 5468 5460 5452 5444 5436 5428 5421 5413 5405 5397 5391 5386 5382 5379 5376 5369 5363 5360 5359 5358 5356 5356 5357
5547 5542 5538 5533 5527 5522 5516 5510 5504 5498 5491 5484 5477 5470 5463 5455 5448 5439 5431 5424 5416 5408 5401 5394 5386 5380 5374 5370 5367 5364 5360 5354 5349 5347 5346 5344 5343 5345
5536 5531 5526 5522 5516 5511 5505 5499 5492 5486 5479 5472 5465 5457 5450 5442 5435 5427 5419 5411 5404 5397 5390 5384 5377 5370 5364 5360 5356 5353 5350 5345 5341 5338 5336 5331 5330 5332